User: anonymous   Login
Location: Carnières
(50.1682°N, 3.3474°E)
Time: 12:32:00
(UTC+00:00)
Language:

Cosmos 1455 - Orbit

View from above orbital plane
View from above orbital plane
View from above satellite
View from above satellite

Ground track
Ground track

The orbit data is extracted from the following two-line orbital elements,

1 14032U 83037A   24198.59417137  .00021934  00000-0  57031-3 0  9990
2 14032  82.5063  37.3231 0009726 239.9403 120.0878 15.38746902254517
Epoch (UTC): 16 July 2024 14:15:36
Eccentricity: 0.0009726
inclination: 82.5063°
perigee height: 443 km
apogee height: 456 km
right ascension of ascending node: 37.3231°
argument of perigee: 239.9403°
revolutions per day: 15.38746902
mean anomaly at epoch: 120.0878°
orbit number at epoch: 25451

The dashed part of the orbit path shows where the satellite is in the earth's shadow,  

DLR